Total_Precipitation_Accumulation
0.70 0.69 0.76 0.83 0.87 0.87 0.96 0.88 0.72 0.65 0.59 0.53 0.48 0.49 0.50 0.52 0.58 0.72 0.87 0.99 1.10 1.13 1.13 1.16 1.20 1.28 1.29 1.20 1.25 1.30 1.39 1.52 1.38 1.09 1.13 1.24 1.11 0.86 0.69 0.61 0.52 0.52 0.50
0.70 0.72 0.73 0.78 0.80 0.79 0.82 0.87 0.83 0.71 0.61 0.57 0.54 0.51 0.43 0.42 0.52 0.65 0.80 0.96 1.10 1.20 1.23 1.25 1.15 1.14 1.24 1.26 1.27 1.29 1.31 1.44 1.37 1.25 1.20 1.28 1.27 1.11 0.92 0.71 0.52 0.44 0.45
0.73 0.74 0.70 0.70 0.65 0.66 0.69 0.72 0.77 0.79 0.77 0.72 0.65 0.58 0.56 0.59 0.65 0.72 0.78 0.90 1.04 1.13 1.18 1.16 1.11 1.15 1.11 1.20 1.26 1.24 1.23 1.21 1.28 1.28 1.26 1.38 1.39 1.23 1.02 0.81 0.61 0.56 0.50
0.65 0.65 0.64 0.67 0.68 0.73 0.75 0.74 0.74 0.74 0.77 0.77 0.74 0.76 0.80 0.84 0.82 0.79 0.78 0.83 0.87 0.92 0.96 0.95 0.93 0.97 1.02 1.09 1.11 1.12 1.16 1.20 1.24 1.23 1.27 1.40 1.43 1.41 1.22 0.97 0.77 0.65 0.58
0.70 0.67 0.62 0.63 0.69 0.73 0.75 0.75 0.75 0.73 0.73 0.84 0.88 0.92 0.96 0.94 0.86 0.88 0.88 0.79 0.83 0.78 0.74 0.75 0.76 0.83 0.88 0.94 0.90 0.96 1.05 1.11 1.15 1.23 1.29 1.43 1.45 1.50 1.35 1.10 0.93 0.80 0.67
0.70 0.76 0.76 0.73 0.68 0.71 0.75 0.74 0.76 0.77 0.83 0.94 0.97 1.00 1.00 0.89 0.88 0.86 0.83 0.78 0.81 0.80 0.76 0.73 0.69 0.71 0.71 0.74 0.76 0.81 0.91 1.00 1.08 1.19 1.27 1.38 1.47 1.46 1.40 1.28 1.13 0.94 0.73
0.77 0.77 0.85 0.91 0.84 0.89 0.92 0.88 0.89 0.92 0.98 1.02 1.10 1.13 1.14 1.14 1.00 0.86 0.80 0.77 0.83 0.86 0.89 0.86 0.65 0.54 0.62 0.67 0.76 0.74 0.74 0.79 0.91 1.05 1.13 1.24 1.43 1.50 1.54 1.41 1.34 1.18 0.91
0.80 0.81 0.91 1.05 1.00 1.01 1.03 1.03 1.09 1.17 1.20 1.27 1.30 1.24 1.24 1.20 1.06 0.85 0.78 0.69 0.72 0.79 0.84 0.86 0.82 0.75 0.72 0.74 0.81 0.80 0.74 0.69 0.74 0.81 0.87 1.07 1.41 1.66 1.70 1.64 1.61 1.48 1.22
0.89 0.99 1.09 1.21 1.28 1.26 1.25 1.34 1.39 1.43 1.48 1.56 1.61 1.55 1.45 1.38 1.15 0.85 0.74 0.67 0.72 0.75 0.79 0.81 0.81 0.75 0.66 0.56 0.62 0.69 0.73 0.72 0.68 0.76 0.82 0.95 1.18 1.51 1.70 1.73 1.74 1.57 1.31
1.04 1.07 1.14 1.31 1.40 1.43 1.43 1.55 1.66 1.68 1.69 1.72 1.63 1.51 1.44 1.42 1.28 0.97 0.83 0.78 0.85 0.88 0.97 0.95 0.84 0.76 0.66 0.54 0.59 0.70 0.72 0.73 0.79 0.80 0.79 0.79 0.90 1.17 1.45 1.47 1.49 1.54 1.31
1.01 1.06 1.15 1.36 1.62 1.66 1.71 1.76 1.82 1.84 1.86 1.84 1.75 1.66 1.57 1.50 1.38 1.02 0.86 0.88 0.96 1.02 0.97 0.97 0.90 0.80 0.65 0.56 0.55 0.63 0.65 0.70 0.84 0.91 0.94 0.96 1.02 1.12 1.27 1.35 1.42 1.45 1.39
1.04 1.11 1.24 1.49 1.59 1.68 1.82 1.86 1.97 2.02 1.98 1.91 1.88 1.75 1.67 1.59 1.35 1.09 0.89 0.89 1.01 1.15 1.15 1.10 1.05 0.91 0.72 0.61 0.51 0.48 0.51 0.55 0.66 0.81 0.88 0.91 0.95 1.00 1.11 1.27 1.44 1.49 1.46
1.04 1.09 1.20 1.34 1.43 1.55 1.61 1.59 1.67 1.77 1.77 1.77 1.75 1.69 1.65 1.67 1.47 1.09 0.90 0.86 0.94 1.10 1.24 1.30 1.15 0.98 0.86 0.73 0.67 0.60 0.55 0.54 0.63 0.72 0.78 0.78 0.83 0.92 1.08 1.30 1.51 1.70 1.64
0.99 0.97 1.06 1.23 1.30 1.36 1.47 1.49 1.58 1.64 1.68 1.74 1.75 1.67 1.63 1.70 1.63 1.31 1.06 0.93 0.90 0.95 1.03 1.06 1.00 0.96 0.87 0.77 0.68 0.58 0.50 0.51 0.58 0.61 0.68 0.77 0.87 1.05 1.13 1.16 1.26 1.46 1.61
1.02 0.97 1.01 1.12 1.22 1.29 1.40 1.49 1.50 1.53 1.50 1.52 1.55 1.52 1.53 1.61 1.54 1.30 1.11 1.00 0.94 0.95 1.00 1.05 1.05 1.04 0.94 0.84 0.76 0.70 0.67 0.66 0.63 0.65 0.73 0.83 0.89 0.97 1.06 1.12 1.18 1.22 1.25
1.08 1.01 0.98 1.00 1.10 1.16 1.25 1.25 1.16 1.13 1.09 1.05 1.08 1.03 1.03 1.19 1.19 0.98 0.85 0.88 0.87 0.84 0.88 0.95 1.01 1.04 0.98 0.90 0.84 0.79 0.78 0.76 0.73 0.76 0.82 0.87 0.92 0.94 1.00 1.14 1.25 1.25 1.15
1.25 1.10 0.98 0.93 0.96 1.01 1.12 1.21 1.23 1.10 1.01 0.93 0.89 0.79 0.74 0.94 1.03 0.90 0.78 0.73 0.70 0.72 0.78 0.85 0.89 0.95 0.99 0.91 0.84 0.79 0.78 0.79 0.84 0.88 0.88 0.91 0.97 1.03 1.09 1.18 1.28 1.34 1.25
1.21 1.10 0.95 0.90 0.90 0.89 0.95 1.05 1.13 1.19 1.16 0.99 0.82 0.70 0.61 0.72 0.84 0.80 0.70 0.62 0.60 0.63 0.69 0.77 0.85 0.90 0.97 0.94 0.86 0.85 0.89 0.94 0.94 0.94 0.95 0.97 1.03 1.08 1.13 1.16 1.20 1.26 1.26
1.08 1.00 0.89 0.86 0.87 0.81 0.76 0.83 0.92 1.00 1.10 1.04 0.85 0.72 0.63 0.69 0.76 0.72 0.61 0.54 0.57 0.59 0.62 0.68 0.76 0.85 0.89 0.88 0.88 0.90 0.93 0.96 0.91 0.92 0.98 1.03 1.00 1.04 1.04 1.08 1.15 1.24 1.27
0.87 0.74 0.71 0.76 0.77 0.74 0.74 0.78 0.88 0.97 1.04 1.02 0.89 0.76 0.64 0.67 0.75 0.75 0.65 0.61 0.61 0.58 0.57 0.63 0.71 0.77 0.82 0.86 0.93 0.97 0.94 0.99 1.01 0.96 0.99 1.06 1.00 0.99 0.99 0.99 1.10 1.16 1.17
0.72 0.59 0.49 0.55 0.66 0.70 0.74 0.80 0.91 0.98 1.00 0.93 0.79 0.65 0.55 0.53 0.63 0.64 0.67 0.68 0.66 0.64 0.65 0.64 0.68 0.74 0.76 0.83 0.92 0.97 0.98 1.01 1.05 0.99 0.98 1.06 1.05 1.05 1.07 1.04 1.06 1.16 1.17
0.68 0.56 0.47 0.49 0.55 0.60 0.70 0.82 0.90 0.91 0.86 0.80 0.73 0.64 0.59 0.56 0.61 0.64 0.68 0.68 0.65 0.64 0.61 0.62 0.65 0.72 0.76 0.80 0.86 0.92 0.95 0.96 1.00 1.03 1.02 1.06 1.08 1.06 1.08 1.07 1.05 1.15 1.24
0.62 0.48 0.39 0.38 0.41 0.45 0.57 0.76 0.82 0.76 0.69 0.67 0.66 0.65 0.65 0.65 0.64 0.65 0.67 0.66 0.64 0.61 0.57 0.61 0.65 0.69 0.75 0.76 0.76 0.83 0.88 0.89 0.88 0.94 1.04 1.05 1.08 1.10 1.11 1.14 1.13 1.15 1.23
0.53 0.40 0.29 0.26 0.30 0.39 0.55 0.72 0.74 0.66 0.62 0.64 0.64 0.65 0.66 0.65 0.64 0.64 0.66 0.67 0.66 0.65 0.63 0.63 0.63 0.62 0.65 0.71 0.70 0.68 0.69 0.67 0.68 0.76 0.88 0.98 1.02 1.11 1.11 1.12 1.15 1.12 1.20
0.49 0.40 0.31 0.26 0.30 0.43 0.61 0.72 0.65 0.59 0.58 0.58 0.56 0.60 0.65 0.67 0.67 0.67 0.67 0.69 0.69 0.71 0.68 0.64 0.63 0.60 0.56 0.56 0.59 0.57 0.55 0.47 0.48 0.57 0.69 0.82 0.88 0.98 1.03 1.04 1.12 1.14 1.16
0.45 0.42 0.36 0.32 0.37 0.49 0.62 0.66 0.60 0.57 0.59 0.57 0.56 0.58 0.64 0.67 0.67 0.65 0.65 0.66 0.66 0.64 0.58 0.54 0.53 0.54 0.53 0.51 0.46 0.42 0.37 0.35 0.37 0.45 0.55 0.67 0.78 0.86 0.93 0.98 1.03 1.11 1.10